This is the latest recevied weather packets stored in our database for station/object VA3VWX-13. If no packets are shown the sender has not sent any weather packets the latest 10 day(s).
| Time | Temp. | Humidity | Pressure | Rain* | Wind** | Luminosity | Snow |
|---|---|---|---|---|---|---|---|
| 1778274819 | 12.22° C | 62% | 1009.5 hPa | 0 mm | - | - | - |
| 1778274525 | 12.22° C | 62% | 1009.6 hPa | 0 mm | - | - | - |
| 1778274242 | 12.22° C | 62% | 1009.6 hPa | 0 mm | - | - | - |
| 1778273902 | 11.67° C | 64% | 1009.7 hPa | 0 mm | - | - | - |
| 1778273609 | 11.67° C | 64% | 1009.7 hPa | 0 mm | - | - | - |
| 1778273318 | 11.67° C | 63% | 1009.8 hPa | 0 mm | - | - | - |
| 1778273015 | 11.67° C | 61% | 1009.7 hPa | 0 mm | - | - | - |
| 1778272721 | 11.67° C | 63% | 1009.8 hPa | 0 mm | - | - | - |
| 1778272408 | 11.67° C | 62% | 1009.8 hPa | 0 mm | - | - | - |
| 1778272104 | 11.67° C | 62% | 1009.8 hPa | 0 mm | - | - | - |
| 1778271811 | 11.67° C | 61% | 1009.8 hPa | 0 mm | - | - | - |
| 1778271518 | 11.67° C | 60% | 1009.9 hPa | 0 mm | - | - | - |
| 1778271220 | 11.67° C | 60% | 1009.9 hPa | 0 mm | - | - | - |
| 1778270917 | 11.11° C | 59% | 1010 hPa | 0 mm | - | - | - |
| 1778270633 | 11.11° C | 58% | 1010 hPa | 0 mm | - | - | - |
| 1778270302 | 11.67° C | 58% | 1010.1 hPa | 0 mm | - | - | - |
| 1778270030 | 11.11° C | 59% | 1010.2 hPa | 0 mm | - | - | - |
| 1778269710 | 10.56° C | 60% | 1010.3 hPa | 0 mm | - | - | - |
| 1778269418 | 10.56° C | 59% | 1010.3 hPa | 0 mm | - | - | - |
| 1778269126 | 10.56° C | 58% | 1010.3 hPa | 0 mm | - | - | - |
| 1778268803 | 10.56° C | 56% | 1010.4 hPa | 0 mm | - | - | - |
| 1778268511 | 11.11° C | 56% | 1010.6 hPa | 0 mm | - | - | - |
| 1778268218 | 10.56° C | 62% | 1010.6 hPa | 0 mm | - | - | - |
| 1778267917 | 10° C | 63% | 1010.7 hPa | 0 mm | - | - | - |
| 1778267603 | 10° C | 61% | 1010.7 hPa | 0 mm | - | - | - |
* Rain latest hour (hover to see other rain measurements)
** Current wind speed in m/s (hover to see current wind gust speed)